Preview of NWS' New Version of Forecast
This preview is not operational and should not be used for support decisions.

Regional Weather Roundup (RWR)

Issued by National Weather Service (NWS)

                            
000
ASUS43 KLSX 180557
RWRMO 

WEATHER SUMMARY FOR MISSOURI
NATIONAL WEATHER SERVICE SPRINGFIELD MO
100 AM CDT TUE JUN 18 2019

NOTE: "FAIR" INDICATES FEW OR NO CLOUDS BELOW 12,000 FEET WITH NO
       SIGNIFICANT WEATHER AND/OR OBSTRUCTIONS TO VISIBILITY.
       CURRENT SKY AND/OR WEATHER CONDITIONS ARE NOT AVAILABLE FOR
       CHILLICOTHE AND FARMINGTON.

MOZ001>031-035>038-043-044-053-054-180700-
...NORTHERN AND WESTERN MISSOURI...
  
CITY           SKY/WX    TMP DP  RH WIND       PRES   REMARKS
KANSAS CTY INT MOCLDY    68  65  90 SE3       29.98R                  
6HR MIN TEMP:  68; 6HR MAX TEMP:  81;                                

LEE'S SUMMIT   CLEAR     67  64  90 SE3       29.98S                  
6HR MIN TEMP:  67; 6HR MAX TEMP:  78;                                

ST JOSEPH      CLEAR     69  63  81 S3        29.98R                  
6HR MIN TEMP:  69; 6HR MAX TEMP:  82;                                

CHILLICOTHE      N/A     66  63  90 CALM      29.99R                  
6HR MIN TEMP:  66; 6HR MAX TEMP:  80;                                

KIRKSVILLE     FOG       59  59 100 CALM      30.00R VSB 1/2          
     
$$
MOZ066>068-077>081-088>096-101>105-180700-
...SOUTHWEST MISSOURI...
  
CITY           SKY/WX    TMP DP  RH WIND       PRES   REMARKS
SPRINGFIELD    CLEAR     67  64  90 NE5       29.96R                  
6HR MIN TEMP:  67; 6HR MAX TEMP:  77; 6HR PCP: TRACE;                

JOPLIN         CLEAR     66  65  96 CALM      29.97R                  
6HR MIN TEMP:  66; 6HR MAX TEMP:  79;                                

               
$$
MOZ032>034-039>042-045>050-055>058-069>072-180700-
...CENTRAL MISSOURI...  
  
CITY           SKY/WX    TMP DP  RH WIND       PRES   REMARKS
COLUMBIA       FOG       64  63  94 N5        29.97S VSB 3/4          
ROLLA          FOG       65  64  97 NE3       29.96S VSB 1/4          
6HR MIN TEMP:  65; 6HR MAX TEMP:  70;                                

SEDALIA        CLOUDY    64  64 100 CALM      29.99R                  
6HR MIN TEMP:  63; 6HR MAX TEMP:  69;                                

WARRENSBURG    CLEAR     63  63 100 CALM      29.98R FOG              
               
$$
MOZ051-052-059>065-180700-
...EAST CENTRAL MISSOURI...
  
CITY           SKY/WX    TMP DP  RH WIND       PRES   REMARKS
ST LOUIS INTL  CLOUDY    72  68  87 NE6       29.95S FOG              
6HR MIN TEMP:  71; 6HR MAX TEMP:  73;                                

                   
$$
MOZ072>076-082>087-097>100-106>115-180700-
...SOUTH CENTRAL AND SOUTHEAST MISSOURI...
  
CITY           SKY/WX    TMP DP  RH WIND       PRES   REMARKS
CAPE GIRARDEAU MOCLDY    73  68  84 CALM      29.92F                  
6HR MIN TEMP:  71; 6HR MAX TEMP:  78;                                

POPLAR BLUFF   MOCLDY    72  70  93 SE5       29.91F                  
6HR MIN TEMP:  70; 6HR MAX TEMP:  78;                                

WEST PLAINS    MOCLDY    69  67  93 CALM      29.96S                  
6HR MIN TEMP:  69; 6HR MAX TEMP:  73; 6HR PCP:  0.01;                

                                       
$$